Location: M�rstetten
(47.5934°N, 9.0668°E)
Time: 13:05:25
(UTC+00:00)

Daily predictions for brighter satellites

Satellite Brightness Start Highest point End
(mag) Time Altitude Azimuth Time Altitude Azimuth Time Altitude Azimuth
Nadezhda 4 Rocket 4.3 19:26:10 10° SSE 19:32:00 47° E 19:37:56 10° NNE
Landsat 7 4.1 19:33:31 10° SSE 19:38:09 55° ENE 19:42:48 10° N
ISS -3.7 19:35:53 10° WNW 19:39:16 86° NNE 19:42:39 10° ESE
SPOT 3 Rocket 3.9 19:34:49 10° SE 19:39:52 53° ENE 19:44:58 10° N
Cosmos 1825 3.5 19:36:58 10° SSW 19:40:34 44° WNW 19:44:11 10° N
IGS 5A 3.6 19:37:14 10° SSE 19:41:20 63° ENE 19:45:27 10° N
BREEZE-M DEB (TANK) 3.7 19:30:11 10° W 19:43:25 79° N 19:47:04 10° ENE
Cosmos 1980 Rocket 2.3 19:38:38 10° NNW 19:44:18 82° WSW 19:49:56 10° SSE
Cosmos 2369 4.2 19:39:00 10° NNW 19:44:35 62° WSW 19:50:08 10° S
Cosmos 2058 3.5 19:41:12 10° SSW 19:45:21 64° W 19:49:33 10° N
MetOp-B 4.5 19:41:08 10° SE 19:46:18 53° ENE 19:51:31 10° N
Cosmos 2221 3.0 19:45:10 10° NNW 19:49:26 64° W 19:53:43 10° S
ERBS 4.4 19:48:08 10° W 19:50:30 19° SW 19:52:54 10° S
RESURS DK-1 2.4 19:46:45 10° SSW 19:50:55 88° NW 19:55:06 10° NNE
USA 245 4.4 19:48:20 10° SE 19:53:04 40° ENE 19:56:57 10° N
COSMOS 2406 4.2 19:48:47 10° SW 19:54:20 54° WNW 19:59:57 10° NNE
BREEZE-M DEB (TANK) 3.5 19:51:10 10° SW 19:54:33 49° SE 20:05:19 10° ENE
Cosmos 2322 Rocket 3.2 19:49:48 10° NNW 19:54:53 33° NE 19:59:55 10° ESE
Cosmos 304 Rocket 4.1 19:54:52 10° NNW 19:59:35 53° ENE 20:03:55 12° SE
BREEZE-M DEB (TANK) 3.5 19:57:12 10° WNW 20:00:17 73° SSW 20:09:20 10° ESE
Cosmos 1933 3.8 19:57:02 10° N 20:00:58 44° ENE 20:04:32 12° SSE
Cosmos 1538 Rocket 4.0 19:56:32 10° S 20:01:42 66° ESE 20:06:51 10° NNE
Resurs 01 Rocket 1.8 19:59:33 10° S 20:03:59 78° WSW 20:08:28 10° NNW
ERS-2 2.3 20:01:46 10° N 20:05:25 74° WNW 20:09:02 10° SSW
Cosmos 2151 3.1 20:01:59 10° S 20:06:07 55° E 20:10:18 10° NNE
Cosmos 2098 Rocket 2.4 20:04:18 10° S 20:07:23 84° W 20:11:05 10° N
Gbstr 26 Del rocket 2.7 20:05:40 10° WNW 20:09:23 77° NNE 20:12:56 13° ESE
Meteor 2-3 Rocket 4.0 20:05:51 10° S 20:11:17 52° E 20:16:51 10° NNE
CARTOSAT-1 4.0 20:09:29 13° SE 20:13:03 46° ENE 20:17:11 10° N
Cosmos 2219 Rocket 4.3 20:12:27 10° N 20:15:53 16° NE 20:19:17 10° ENE
Ariane Rocket 4.2 20:13:43 10° S 20:18:30 41° W 20:23:18 10° NNW
SL-16 R/B 2.4 20:17:59 10° NNW 20:23:39 63° ENE 20:28:03 17° SE
Cosmos 1782 3.1 20:23:29 10° N 20:27:26 51° ENE 20:30:03 19° SSE
Cosmos 371 Rocket 4.0 20:23:33 10° NNW 20:28:12 50° WSW 20:32:50 10° S
ARIANE 5 R/B 2.8 20:26:51 17° SSE 20:30:09 58° ENE 20:34:31 10° N
Cosmos 1271 Rocket 2.7 20:30:01 10° N 20:34:01 85° E 20:36:55 18° SSE
SPOT 1/Viking Rocket 3.8 20:31:18 11° S 20:36:20 70° WSW 20:41:34 10° NNW
USA 276 2.0 20:33:54 10° WNW 20:37:02 70° SSW 20:38:32 28° SE
BREEZE-M DEB (TANK) 2.9 20:35:02 10° W 20:38:06 53° SSW 20:43:14 18° SE
Cosmos 2195 Rocket 4.4 20:32:19 10° S 20:38:26 82° E 20:44:34 10° N
Cosmos 1766 Rocket 3.9 20:37:42 19° SSE 20:40:32 46° E 20:44:45 10° NNE
Cosmos 1151 Rocket 3.2 20:36:44 10° N 20:41:03 58° ENE 20:43:40 23° SSE
ATLAS 5 CENTAUR R/B 4.1 20:38:24 10° NNW 20:42:20 21° NNE 20:46:46 10° ENE
Cosmos 1328 Rocket 3.9 20:40:56 10° N 20:45:17 50° ENE 20:47:39 24° SE
ATLAS 2AS CENTAUR R/B 4.1 20:38:10 10° WSW 20:45:46 48° NW 20:53:08 10° NE
Cosmos 923 Rocket 4.0 20:42:45 10° SSW 20:48:04 74° ESE 20:53:26 10° NNE
Terra 2.1 20:47:56 23° SE 20:50:43 55° ENE 20:55:23 10° N
ATLAS 3B R/B 3.6 20:44:06 10° NW 20:50:46 44° WSW 20:56:42 14° S
SPOT 5 2.5 20:50:48 24° SSE 20:53:23 79° ENE 20:57:47 10° NNW
USA 267 4.0 20:48:30 10° ENE 20:54:04 29° SE 20:59:01 12° S
Cosmos 1092 Rocket 4.3 20:50:19 10° SSW 20:56:33 72° W 21:02:54 10° N
Cosmos 2082 Rocket 4.0 20:51:44 10° WSW 20:56:51 35° NW 21:02:02 10° NNE
Cosmos 2056 Rocket 3.7 20:53:52 10° NNW 20:59:13 61° ENE 21:02:09 26° SE
NOSS 2-1 (C) 3.6 21:00:51 33° ESE 21:00:51 33° ESE 21:03:32 10° NE
BREEZE-M DEB (TANK) 2.0 21:00:39 10° W 21:02:49 57° N 21:03:13 43° NE
ERS-1 Rocket 3.0 21:00:35 23° SSE 21:03:48 84° WSW 21:08:52 10° NNW
SL-27 R/B 3.1 21:06:23 34° ESE 21:06:37 35° ESE 21:09:55 10° NE
Cosmos 2360 Rocket 2.4 21:01:25 10° NNW 21:07:02 63° ENE 21:10:08 27° SE
Meteor 2-21 4.5 21:02:38 20° S 21:07:03 66° E 21:13:10 10° NNE
NOSS 2-1 (D) 3.2 21:08:18 41° ESE 21:08:18 41° ESE 21:11:20 10° NE
Cosmos 2026 Rocket 4.3 21:03:13 10° SSW 21:09:32 71° W 21:15:49 10° N
GP-B 3.8 21:08:22 10° N 21:12:42 52° W 21:16:13 15° SSW
ISS -1.9 21:13:15 10° W 21:15:45 19° SW 21:15:56 19° SW
Cosmos 2333 Rocket 3.0 21:12:11 10° NNW 21:17:31 41° NE 21:20:38 22° ESE
Spot 2 Rocket 4.4 21:14:48 17° SSW 21:18:32 45° W 21:23:26 10° NNW
Meteor 1-10 Rocket 4.2 21:14:38 10° N 21:20:11 68° ENE 21:22:51 31° SSE
Cosmos 1371 Rocket 4.0 21:15:19 10° NNW 21:20:44 83° WSW 21:23:22 31° SSE
Cosmos 1812 2.7 21:17:50 10° NNW 21:21:42 77° W 21:23:04 39° S
Cosmos 2112 Rocket 4.0 21:17:49 12° SSW 21:22:43 88° WNW 21:28:01 10° NNE
Cosmos 1680 Rocket 3.6 21:17:57 10° SSW 21:23:13 76° WNW 21:28:31 10° NNE
Cosmos 1500 Rocket 4.2 21:22:34 33° ESE 21:23:26 37° E 21:27:31 10° NNE
Cosmos 220 Rocket 4.2 21:19:49 10° NNW 21:24:07 65° WSW 21:25:50 35° S
Cosmos 2322 4.4 21:22:23 10° NNW 21:27:54 46° NE 21:30:49 26° ESE
Okean 3 Rocket 4.0 21:24:58 19° SSW 21:28:05 61° WNW 21:32:35 10° N
USA 234 3.9 21:22:52 10° E 21:29:12 55° NNE 21:35:34 10° NW
Cosmos 292 Rocket 3.8 21:27:12 10° NNW 21:31:58 70° ENE 21:33:40 39° SE
Cosmos 2237 Rocket 4.2 21:33:41 10° N 21:37:47 20° NE 21:41:53 10° E
Meteor 2-16 Rocket 4.4 21:35:24 30° S 21:38:34 74° E 21:44:39 10° NNE
Cosmos 2322 Rocket 2.8 21:33:44 10° NW 21:39:08 48° WSW 21:41:46 27° SSW
Cosmos 1408 Rocket 3.5 21:40:12 37° SSW 21:41:55 81° W 21:46:17 10° N
Cosmos 1743 Rocket 3.7 21:42:22 47° SE 21:43:17 57° E 21:47:39 10° NNE
Cosmos 2285 Rocket 4.4 21:38:35 10° NNW 21:44:45 52° ENE 21:47:42 30° ESE
Cosmos 2315 Rocket 4.2 21:43:21 10° N 21:49:38 63° ENE 21:52:17 36° SE
Sich 1 4.0 21:51:50 32° E 21:52:00 32° E 21:55:52 10° NNE
Cosmos 2084 3.5 21:48:52 15° SW 21:52:12 71° NW 21:56:23 10° NE
Gbstr 26 Del rocket 4.2 21:52:41 10° W 21:55:26 25° SW 21:55:26 25° SW
Cosmos 2266 Rocket 3.9 21:53:29 33° S 21:56:29 86° E 22:02:45 10° N
Cosmos 1862 4.3 21:57:03 26° SW 21:58:48 41° WNW 22:02:36 10° N
Cosmos 1048 Rocket 4.4 21:59:25 39° ESE 21:59:55 40° ESE 22:04:41 10° NE
Cosmos 2219 Rocket 2.3 21:55:21 10° NNW 22:00:57 67° ENE 22:02:58 39° SE
Cosmos 2228 Rocket 3.0 22:00:55 10° N 22:05:21 77° E 22:06:05 60° SSE
Cosmos 1515 Rocket 4.4 22:01:11 10° NNW 22:05:24 44° W 22:06:43 34° SW
H-2A R/B 4.0 22:01:34 10° N 22:05:41 56° WNW 22:07:14 34° SW
NOSS 2-1 (E) 3.5 22:05:22 38° W 22:06:18 54° NW 22:09:45 10° NNE
SL-16 R/B 3.9 22:02:56 10° NW 22:07:17 23° WSW 22:09:55 17° SW
NOSS 3-1 (C) 4.0 22:02:47 10° NW 22:10:15 83° SW 22:14:30 34° SSE
Cosmos 2333 4.1 22:04:55 10° NNW 22:10:32 77° WSW 22:12:13 46° S
COSMOS 2455 2.8 22:09:10 41° S 22:11:12 63° ESE 22:17:09 10° NE
Cosmos 1420 Rocket 4.5 22:06:59 10° NNW 22:12:09 51° WSW 22:13:43 38° SSW
COSMOS 2428 2.8 22:09:59 10° NNW 22:15:42 72° ENE 22:17:35 43° SE
Cosmos 1655 Rocket 4.4 22:12:44 26° SSW 22:16:27 63° WNW 22:22:49 10° N
Cosmos 1602 4.5 22:17:48 41° ENE 22:17:48 41° ENE 22:21:04 10° NNE
Cosmos 1515 4.0 22:17:13 10° N 22:20:48 54° ENE 22:20:48 54° ENE
Spot 4 3.7 22:21:45 58° SSE 22:22:42 86° ENE 22:27:34 10° NNW
USA 229 DEB 3.9 22:17:08 10° NW 22:24:28 82° NE 22:28:16 34° SE
USA 229 3.9 22:17:14 10° NW 22:24:34 82° NE 22:28:23 33° SE
ATLAS 5 CENTAUR R/B 2.5 22:22:27 10° NW 22:27:52 65° NE 22:30:39 33° ESE
Terra 3.8 22:26:49 16° WSW 22:28:48 20° W 22:32:16 10° NW
COSMOS 2487 2.9 22:31:49 57° N 22:31:49 57° N 22:34:39 10° NNE
Cosmos 1452 Rocket 3.6 22:26:30 10° NNW 22:31:44 67° WSW 22:32:49 53° SSW
Cosmos 1707 Rocket 3.5 22:27:38 10° N 22:31:59 66° E 22:32:18 63° ESE
ALOS 2 2.6 22:33:57 61° ESE 22:34:24 66° ENE 22:38:46 10° N
USA 267 3.2 22:31:03 10° NE 22:37:39 88° SSE 22:44:12 10° SW
Meteor 1-27 Rocket 4.5 22:37:05 10° NNW 22:42:23 43° W 22:44:14 33° SW
Cosmos 1666 4.4 22:44:25 24° ENE 22:44:25 24° ENE 22:46:59 10° NNE
NOSS 3-1 (A) 4.0 22:37:27 10° NW 22:44:57 82° SW 22:48:49 37° SSE
SL-08 ROCKET BODY 4.5 22:44:13 48° SSE 22:45:48 66° E 22:51:53 10° NNE
Cosmos 1805 Rocket 4.1 22:49:13 45° WSW 22:49:59 51° WNW 22:54:21 10° N
Cosmos 2360 Rocket 3.7 22:46:16 10° NW 22:50:33 23° WSW 22:51:53 21° WSW
Nadezhda 2 Rocket 4.5 22:49:09 46° S 22:51:14 89° WNW 22:57:41 10° N
Meteor 1-20 Rocket 4.3 22:54:51 46° SW 22:56:31 70° WNW 23:02:13 10° N
Cosmos 1110 Rocket 3.9 22:52:29 10° NNW 22:57:49 76° WSW 22:58:40 61° S
Cosmos 1980 3.9 22:53:56 10° NNW 22:59:35 64° ENE 23:01:19 43° ESE
Cosmos 2333 Rocket 3.0 22:56:36 10° NW 23:01:45 37° WSW 23:02:38 35° SW
Cosmos 1331 Rocket 3.9 22:58:00 10° NNW 23:03:15 75° WSW 23:03:58 64° SSW
Cosmos 1244 Rocket 4.5 23:03:47 46° SSW 23:05:43 76° W 23:11:57 10° N
USA 234 3.2 23:10:02 45° SSE 23:12:08 68° SW 23:18:41 10° WNW
Nimbus 7 Rocket 4.4 23:06:33 10° NNE 23:12:35 75° ESE 23:14:02 53° S
Cosmos 1340 Rocket 4.0 23:13:35 32° ENE 23:13:35 32° ENE 23:16:34 10° NNE
NOSS 0 Rocket 3.9 23:08:16 10° NNW 23:14:31 75° WSW 23:16:01 53° S
Cosmos 2297 Rocket 2.5 23:17:11 47° SE 23:17:45 49° ESE 23:23:12 10° NE
Okean 1-7 3.8 23:14:36 10° N 23:18:37 39° ENE 23:18:54 38° E
Lacrosse 5 2.5 23:21:59 40° ESE 23:21:59 40° ESE 23:25:58 10° ENE
Cosmos 2237 Rocket 2.1 23:16:59 10° NNW 23:22:43 86° ENE 23:24:02 55° SSE
Cosmos 2084 Rocket 3.4 23:20:02 10° NW 23:24:07 83° N 23:24:07 83° N
Cosmos 2242 Rocket 4.1 23:20:30 10° N 23:24:46 46° ENE 23:25:08 45° E
NOSS 2-2 (E) 4.4 23:20:11 10° NW 23:25:32 85° NE 23:28:32 37° SE
Meteor 1-18 Rocket 4.5 23:20:00 10° NNW 23:25:46 59° W 23:26:57 49° SW
Cosmos 1500 3.8 23:26:57 51° WNW 23:26:57 51° WNW 23:30:27 10° N
Cosmos 1470 Rocket 3.4 23:29:03 88° NNE 23:29:03 88° NNE 23:33:21 10° N
Cosmos 2227 Rocket 2.6 23:28:53 44° SE 23:29:28 45° ESE 23:34:50 10° NE
Cosmos 1633 Rocket 3.6 23:33:06 47° W 23:33:23 48° WNW 23:37:38 10° N
Cosmos 1933 Rocket 3.6 23:35:34 69° ESE 23:35:38 70° E 23:40:04 10° NNE
Meteor 1-11 Rocket 4.1 23:41:19 43° SE 23:42:23 49° E 23:47:42 10° NNE
Cosmos 2219 Rocket 3.7 23:40:18 10° NW 23:44:21 21° W 23:44:40 21° WSW
Cosmos 2263 Rocket 4.4 23:46:36 11° ESE 23:48:02 12° E 23:50:15 10° ENE
NOSS 2-2 (C) 4.3 23:44:27 10° NW 23:49:46 83° SW 23:52:23 40° SSE
SL-16 R/B 2.7 23:44:27 10° NNW 23:50:02 55° ENE 23:52:42 30° ESE
Cosmos 1992 Rocket 4.2 23:45:27 10° NNW 23:50:40 65° ENE 23:52:06 45° SE
Cosmos 1269 Rocket 3.9 23:50:05 61° SW 23:51:01 83° WNW 23:56:21 10° NNE
PSLV R/B 3.6 23:46:55 10° NNE 23:51:43 89° WNW 23:52:12 73° SSW
Resurs 1-4 Rocket 3.9 23:49:49 10° NE 23:53:37 20° E 23:55:13 17° ESE
